Location: Wiesbaden
(50.0830°N, 8.2500°E)
Time: 20:42:05
(UTC+02:00)

ISS - Pass Details

Date: 16 July 2019
Orbit: 409 x 418 km, 51.6° (Epoch: 20 July)

Event Time Altitude Azimuth Distance (km) Brightness Sun altitude
Rises 04:43:15 0° 287° (WNW) 2,347 -0.2 -7.1°
Reaches altitude 10° 04:45:25 10° 280° (W) 1,481 -1.3 -6.8°
Maximum altitude 04:48:34 41° 209° (SSW) 610 -3.4 -6.5°
Drops below altitude 10° 04:51:41 10° 138° (SE) 1,471 -1.0 -6.1°
Sets 04:53:50 0° 131° (SE) 2,329 0.1 -5.9°
